一网星座-0387星 (ONEWEB-0387 )

导读 | 星芒AI

ONEWEB-0387 是 OneWeb 卫星通信星座计划中的一颗低轨通信卫星。该卫星由阿丽亚娜集团制造,于2023年发射,旨在为全球提供高速互联网服务,特别是在偏远和农村地区。作为 OneWeb 卫星群的一部分,它运行在约1200公里的近地轨道上,采用星间链路技术,提升网络覆盖与传输效率。该星座计划最终部署超过600颗卫星,以支持全球无缝宽带连接。

基本信息
目录编号:
49313
目录名称:
ONEWEB-0387
国际标识:
2021-090AL
轨道中心:
EARTH
卫星名称:
一网星座-0387星
卫星全名:
一网星座-0387星 (ONEWEB-0387 )
卫星状态:
在轨 (已飞行1523 天)
发射日期:
2021-10-14 UTC
国别 :
英国 (GB)
星等 :
--
轨道信息
数据来源 国际轨道数据
星历时间: 2025-12-15T05:34:22+0800
21小时前
查看轨道信息
半长轴: 7559.915km
偏心率: 0.000164
轨道倾角: 87.920°
近地点辐角 90.443°
升交点赤经 311.221°
平近点角 269.689°
近地点: 1180.54km
远地点: 1183.02km
周期: 109.027分钟
每日圈数: 13.207708
详细信息
平衡模式:
三轴稳定
覆盖范围:
全球
运营商:
一网卫星公司
运营商所在国:
英国
制造商(研发单位):
一网卫星公司
制造商所在国:
英国
使用方式:
暂无
卫星简介
OneWeb卫星网络由648颗重约125公斤的微型卫星组成,运行在1200公里的轨道上。 每颗卫星都能够提供至少每秒8千兆位的吞吐量,以使用其高吞吐量的Ku频段有效载荷为家庭和移动平台提供互联网接入。该卫星仍在工作。
2D轨道图
3D轨道图
轨道高度分析图
轨道倾角分析图
轨道综合分析图
查看轨道综合分析图